[[{"header":{"parameterUnit":"m.s-1","parameterCategory":1,"la1":30.2991,"la2":30.254,"lo1":-89.0895,"lo2":-89.0444,"dy":0.0017,"dx":0.0017,"nx":28,"ny":28,"refTime":"2024-10-07T09:00:00:Z","depth":0,"parameterNumber":2,"parameterNumberName":"U-component_of_WINDS"},"data":[0,0,0,0,0,0,0,0,0,0,0,0,0,0,0,0,0,0,0,0,0,0,0,0,0,0,0,0,0,0,0,0,0,0,0,0,0,0,0,0,0,0,0,0,0,0,0,0,0,0,0,0,0,0,0,0,0,0,-0.4895,-0.4895,0,-0.4924,-0.4924,-0.4925,-0.4946,-0.4947,-0.4947,-0.4947,-0.4975,-0.4976,-0.4976,0,0,0,0,0,0,0,0,0,0,0,0,0,-0.4856,-0.4856,-0.4895,-0.4895,-0.4896,-0.4924,-0.4924,-0.4925,-0.4946,-0.4947,-0.4947,-0.4947,-0.4975,-0.4976,-0.4977,0,0,0,0,0,0,0,0,0,0,0,0,0,-0.4877,-0.4856,-0.4895,-0.491,-0.4911,-0.4924,-0.4924,-0.4925,-0.4946,-0.4947,-0.4947,-0.4947,-0.4975,-0.4976,-0.4977,-0.4976,0,0,-0.4979,-0.498,0,0,0,0,0,0,0,0,-0.4876,-0.4879,-0.4907,-0.4909,-0.4911,-0.4932,-0.4921,-0.4942,-0.4946,-0.4933,-0.4947,-0.4947,-0.4961,-0.4963,-0.4967,-0.4977,-0.4979,-0.4979,-0.498,-0.498,-0.498,0,0,0,0,0,0,0,-0.4875,-0.4878,-0.4906,-0.4907,-0.491,-0.4914,-0.4918,-0.4925,-0.4945,-0.4934,-0.4936,-0.4939,-0.4961,-0.4967,-0.4968,-0.4979,-0.4979,-0.498,-0.4981,-0.4981,-0.4989,-0.4989,0,0,0,0,0,0,-0.4871,-0.4876,-0.4905,-0.4907,-0.4894,-0.4915,-0.4919,-0.4925,-0.4945,-0.4948,-0.4939,-0.494,-0.4965,-0.4967,-0.4969,-0.497,-0.498,-0.4981,-0.4982,-0.499,-0.4989,-0.4989,0,0,0,0,0,0,-0.487,-0.4873,-0.4904,-0.4892,-0.4897,-0.4915,-0.4922,-0.4925,-0.493,-0.4948,-0.4952,-0.494,-0.4965,-0.4968,-0.4974,-0.4971,-0.4981,-0.4982,-0.499,-0.499,-0.4989,-0.4971,0,0,0,0,0,0,-0.4869,-0.4873,-0.4874,-0.4892,-0.4897,-0.4909,-0.4922,-0.4925,-0.4932,-0.4934,-0.4951,-0.4954,-0.4966,-0.4973,-0.4975,-0.4972,-0.4983,-0.499,-0.499,-0.4989,-0.4972,-0.497,-0.4968,0,0,0,0,0,-0.4867,-0.4867,-0.4873,-0.4877,-0.4898,-0.4909,-0.4912,-0.4926,-0.4931,-0.4932,-0.4943,-0.4953,-0.4971,-0.4973,-0.4976,-0.4974,-0.4991,-0.499,-0.4989,-0.4973,-0.497,-0.4968,0,0,0,0,0,0,-0.4847,-0.487,-0.4877,-0.4883,-0.4894,-0.4913,-0.4914,-0.4923,-0.4932,-0.4934,-0.495,-0.4954,-0.4958,-0.4966,-0.4969,-0.4974,-0.4982,-0.4982,-0.4968,-0.4966,-0.4964,-0.4962,-0.4984,0,0,0,0,0,-0.4843,-0.4851,-0.487,-0.4873,-0.4878,-0.4895,-0.49,-0.491,-0.4922,-0.4927,-0.4939,-0.4949,-0.4957,-0.4962,-0.497,-0.4973,-0.4977,-0.4972,-0.4971,-0.4969,-0.4969,-0.497,-0.4968,-0.4987,-0.4987,-0.4987,0,0,-0.4836,-0.4849,-0.4853,-0.4869,-0.4879,-0.4886,-0.4899,-0.4905,-0.491,-0.4927,-0.4934,-0.4943,-0.4956,-0.496,-0.4963,-0.4967,-0.4964,-0.4968,-0.4967,-0.4967,-0.4969,-0.4967,-0.4966,-0.4986,-0.4987,-0.4987,0,0,-0.4825,-0.4836,-0.484,-0.4849,-0.4864,-0.4875,-0.4875,-0.4893,-0.4899,-0.4906,-0.4919,-0.4925,-0.4938,-0.4947,-0.4953,-0.4945,-0.4954,-0.4947,-0.4937,-0.4938,-0.4937,-0.4936,-0.4932,-0.4931,-0.4946,-0.4946,-0.4946,0,-0.4814,-0.4825,-0.484,-0.4846,-0.4853,-0.4869,-0.4872,-0.488,-0.4897,-0.4901,-0.4906,-0.4922,-0.4932,-0.4938,-0.4936,-0.4941,-0.4942,-0.4945,-0.4936,-0.4935,-0.4934,-0.4931,-0.4929,-0.4945,-0.4946,-0.4946,-0.4946,0,-0.481,-0.4817,-0.4818,-0.4834,-0.4841,-0.4845,-0.486,-0.4865,-0.4874,-0.4884,-0.4891,-0.4903,-0.4914,-0.4916,-0.4925,-0.4923,-0.4925,-0.4933,-0.4942,-0.4931,-0.4928,-0.4927,-0.4944,-0.4944,-0.4945,-0.4945,0,0,-0.4788,-0.4811,-0.4812,-0.4819,-0.4836,-0.4841,-0.4846,-0.4857,-0.4861,-0.4871,-0.4875,-0.4886,-0.4893,-0.4899,-0.4909,-0.491,-0.4902,-0.4917,-0.4918,-0.4914,-0.49,-0.4894,-0.4893,-0.4908,-0.4908,-0.4908,-0.4899,0,-0.478,-0.479,-0.4803,-0.4809,-0.4815,-0.483,-0.4834,-0.4845,-0.4854,-0.486,-0.487,-0.4878,-0.4886,-0.4891,-0.4892,-0.4903,-0.4899,-0.4904,-0.4911,-0.4912,-0.4908,-0.4892,-0.4886,-0.4877,-0.4898,-0.4898,-0.4898,0,-0.4772,-0.4782,-0.4788,-0.4804,-0.4807,-0.481,-0.4821,-0.4827,-0.4839,-0.4846,-0.4853,-0.4863,-0.4868,-0.4876,-0.4883,-0.4885,-0.4889,-0.4894,-0.4894,-0.4896,-0.4904,-0.4892,-0.4874,-0.4873,-0.4896,-0.4897,-0.4897,0,-0.4755,-0.4769,-0.4775,-0.478,-0.4799,-0.4801,-0.4809,-0.4821,-0.4826,-0.4836,-0.4839,-0.4848,-0.4853,-0.486,-0.4873,-0.4877,-0.4878,-0.4886,-0.4883,-0.4882,-0.4882,-0.4882,-0.4865,-0.4885,-0.4885,-0.4885,-0.4885,0,-0.4744,-0.4747,-0.4767,-0.4771,-0.4774,-0.4789,-0.4792,-0.4801,-0.4812,-0.4816,-0.483,-0.4834,-0.485,-0.4855,-0.4865,-0.4869,-0.4871,-0.4876,-0.4879,-0.4875,-0.4874,-0.4878,-0.4879,-0.4885,-0.4885,-0.4885,-0.4885,0,-0.4726,-0.474,-0.4747,-0.4764,-0.4768,-0.477,-0.4784,-0.4787,-0.4797,-0.4803,-0.4805,-0.482,-0.4828,-0.4841,-0.4851,-0.4858,-0.4859,-0.4864,-0.4856,-0.4857,-0.4853,-0.4853,-0.4837,-0.4835,-0.4856,-0.4856,-0.4856,0,-0.4718,-0.4721,-0.4738,-0.4743,-0.475,-0.4757,-0.4763,-0.4777,-0.4782,-0.4795,-0.4797,-0.4805,-0.4813,-0.4824,-0.4835,-0.4843,-0.4848,-0.4842,-0.4849,-0.4845,-0.4848,-0.4847,-0.4847,-0.484,-0.484,-0.484,-0.4839,0,-0.4703,-0.471,-0.4718,-0.4728,-0.4734,-0.4743,-0.4752,-0.4755,-0.4771,-0.4776,-0.4784,-0.479,-0.4801,-0.4809,-0.4818,-0.4826,-0.4835,-0.4837,-0.4836,-0.4833,-0.4828,-0.483,-0.4851,-0.4837,-0.4837,-0.4838,-0.4838,-0.4838,-0.469,-0.4693,-0.4706,-0.4714,-0.4722,-0.473,-0.4734,-0.4744,-0.4751,-0.4762,-0.477,-0.4777,-0.4787,-0.4802,-0.4808,-0.4813,-0.4818,-0.4817,-0.4817,-0.4816,-0.4815,-0.4827,-0.4815,-0.4815,-0.4815,-0.4815,-0.4815,0,-0.4676,-0.4684,-0.4692,-0.4704,-0.471,-0.4719,-0.4729,-0.4734,-0.474,-0.4749,-0.4756,-0.4765,-0.4772,-0.4784,-0.4793,-0.4794,-0.4799,-0.4796,-0.4796,-0.4797,-0.4811,-0.481,-0.4792,-0.4792,-0.4792,-0.4792,-0.4792,-0.4792,-0.4669,-0.4674,-0.4682,-0.4691,-0.4699,-0.4707,-0.4712,-0.4719,-0.4727,-0.4736,-0.4742,-0.475,-0.476,-0.4769,-0.4776,-0.478,-0.4782,-0.4778,-0.4782,-0.4794,-0.4797,-0.4799,-0.4798,-0.4778,-0.4778,-0.4769,-0.4768,-0.4768]},{"header":{"parameterUnit":"m.s-1","parameterCategory":1,"la1":30.2991,"la2":30.254,"lo1":-89.0895,"lo2":-89.0444,"dy":0.0017,"dx":0.0017,"nx":28,"ny":28,"refTime":"2024-10-07T09:00:00:Z","depth":0,"parameterNumber":3,"parameterNumberName":"V-component_of_WINDS"},"data":[0,0,0,0,0,0,0,0,0,0,0,0,0,0,0,0,0,0,0,0,0,0,0,0,0,0,0,0,0,0,0,0,0,0,0,0,0,0,0,0,0,0,0,0,0,0,0,0,0,0,0,0,0,0,0,0,0,0,-5.1259,-5.126,0,-5.1367,-5.1368,-5.1369,-5.134,-5.1338,-5.1336,-5.1334,-5.1439,-5.1444,-5.1448,0,0,0,0,0,0,0,0,0,0,0,0,0,-5.1022,-5.1026,-5.1259,-5.126,-5.1261,-5.1367,-5.1368,-5.137,-5.1341,-5.1338,-5.1335,-5.1333,-5.1437,-5.1443,-5.1449,0,0,0,0,0,0,0,0,0,0,0,0,0,-5.1127,-5.1028,-5.1258,-5.126,-5.1261,-5.1366,-5.1368,-5.137,-5.1341,-5.1338,-5.1335,-5.1332,-5.1435,-5.1442,-5.145,-5.1558,0,0,-5.1472,-5.1475,0,0,0,0,0,0,0,0,-5.1121,-5.1135,-5.1258,-5.126,-5.1261,-5.1337,-5.1323,-5.1433,-5.1342,-5.1311,-5.1334,-5.133,-5.1407,-5.1417,-5.1444,-5.1563,-5.1568,-5.1472,-5.1477,-5.148,-5.1482,0,0,0,0,0,0,0,-5.1114,-5.1131,-5.1301,-5.126,-5.1262,-5.1253,-5.1265,-5.1344,-5.1375,-5.1313,-5.1311,-5.1325,-5.1407,-5.1437,-5.1446,-5.1569,-5.1472,-5.1478,-5.1483,-5.1486,-5.1784,-5.1788,0,0,0,0,0,0,-5.1106,-5.1125,-5.1298,-5.1304,-5.1182,-5.126,-5.1273,-5.1316,-5.1375,-5.1381,-5.1327,-5.1323,-5.1426,-5.1438,-5.145,-5.1582,-5.148,-5.1486,-5.149,-5.1781,-5.1785,-5.1789,0,0,0,0,0,0,-5.1101,-5.1122,-5.1293,-5.1214,-5.1235,-5.1268,-5.1316,-5.132,-5.1349,-5.1386,-5.139,-5.1352,-5.1424,-5.1439,-5.1532,-5.1585,-5.149,-5.1496,-5.1776,-5.1782,-5.1787,-5.1846,0,0,0,0,0,0,-5.1094,-5.112,-5.1163,-5.1216,-5.124,-5.1376,-5.1319,-5.1324,-5.1362,-5.1358,-5.141,-5.1415,-5.1423,-5.1522,-5.1539,-5.1593,-5.1502,-5.1772,-5.1779,-5.1785,-5.184,-5.1853,-5.1864,0,0,0,0,0,-5.1086,-5.1174,-5.1165,-5.1186,-5.1295,-5.1379,-5.1393,-5.1401,-5.1367,-5.1409,-5.1433,-5.1414,-5.1576,-5.1531,-5.1551,-5.1608,-5.1768,-5.1777,-5.1785,-5.1834,-5.185,-5.1864,0,0,0,0,0,0,-5.1124,-5.1181,-5.1172,-5.128,-5.1325,-5.1374,-5.1428,-5.1418,-5.1473,-5.1466,-5.1472,-5.1484,-5.1579,-5.1602,-5.1551,-5.1716,-5.1667,-5.1679,-5.1698,-5.1714,-5.1726,-5.1718,-5.1508,0,0,0,0,0,-5.1146,-5.1212,-5.1256,-5.1347,-5.1371,-5.1396,-5.1433,-5.1436,-5.1482,-5.15,-5.1531,-5.1575,-5.1636,-5.1676,-5.1734,-5.1843,-5.1853,-5.1891,-5.1904,-5.1913,-5.1924,-5.1984,-5.2001,-5.1816,-5.1816,-5.1815,0,0,-5.119,-5.1229,-5.1269,-5.1356,-5.1391,-5.1458,-5.1412,-5.1484,-5.1533,-5.1511,-5.1601,-5.1625,-5.1674,-5.1776,-5.1822,-5.1798,-5.1978,-5.1924,-5.1932,-5.1937,-5.1994,-5.2012,-5.2027,-5.1821,-5.182,-5.1819,0,0,-5.1304,-5.1341,-5.1421,-5.1458,-5.1513,-5.153,-5.1549,-5.16,-5.1616,-5.1707,-5.1691,-5.1749,-5.1854,-5.189,-5.1922,-5.2052,-5.2036,-5.207,-5.2135,-5.2193,-5.2208,-5.2221,-5.2267,-5.2284,-5.2081,-5.2081,-5.2081,0,-5.1352,-5.1454,-5.1463,-5.1538,-5.1576,-5.1561,-5.1641,-5.1676,-5.1746,-5.1773,-5.1745,-5.1878,-5.191,-5.202,-5.2052,-5.2078,-5.21,-5.2065,-5.2205,-5.2218,-5.223,-5.2275,-5.2292,-5.2085,-5.2084,-5.2084,-5.2084,0,-5.1509,-5.158,-5.1638,-5.1709,-5.1754,-5.1831,-5.185,-5.1894,-5.1893,-5.1912,-5.2004,-5.2043,-5.2109,-5.2135,-5.2133,-5.2245,-5.2229,-5.2204,-5.2154,-5.2252,-5.2294,-5.2311,-5.209,-5.2089,-5.2088,-5.2087,0,0,-5.1651,-5.1728,-5.1749,-5.1781,-5.1842,-5.1896,-5.1971,-5.2038,-5.2076,-5.2125,-5.2188,-5.2278,-5.2255,-5.2292,-5.2294,-5.2345,-5.2446,-5.2313,-5.2314,-5.2337,-5.2572,-5.2591,-5.2611,-5.2436,-5.2439,-5.2442,-5.2568,0,-5.1772,-5.1908,-5.1919,-5.2041,-5.2106,-5.2093,-5.2159,-5.2202,-5.2222,-5.2279,-5.2299,-5.2363,-5.2328,-5.235,-5.24,-5.2423,-5.2493,-5.2414,-5.2494,-5.2497,-5.2483,-5.2632,-5.2653,-5.277,-5.2584,-5.2587,-5.2589,0,-5.193,-5.1987,-5.2117,-5.2169,-5.2197,-5.2256,-5.2319,-5.2374,-5.2422,-5.2432,-5.2474,-5.247,-5.2546,-5.2494,-5.2599,-5.2546,-5.2579,-5.2595,-5.2599,-5.2607,-5.2549,-5.2645,-5.2807,-5.2825,-5.2614,-5.2612,-5.2611,0,-5.2022,-5.213,-5.2222,-5.225,-5.2313,-5.2355,-5.2383,-5.2428,-5.2468,-5.2522,-5.2547,-5.2608,-5.2642,-5.2688,-5.27,-5.2661,-5.2805,-5.2754,-5.2815,-5.2815,-5.2846,-5.2844,-5.3017,-5.2867,-5.2867,-5.2866,-5.2866,0,-5.2156,-5.2235,-5.2264,-5.232,-5.2409,-5.242,-5.2507,-5.2532,-5.2573,-5.2632,-5.2623,-5.2679,-5.2692,-5.2749,-5.2759,-5.2845,-5.2859,-5.2869,-5.2871,-5.2871,-5.2869,-5.2892,-5.2885,-5.2871,-5.287,-5.2869,-5.2868,0,-5.2273,-5.2295,-5.2394,-5.2447,-5.2461,-5.2525,-5.2568,-5.2622,-5.264,-5.2716,-5.2735,-5.2763,-5.2831,-5.2848,-5.2928,-5.2934,-5.3036,-5.3029,-5.302,-5.302,-5.3081,-5.3075,-5.3274,-5.3301,-5.3133,-5.3135,-5.3136,0,-5.2357,-5.2418,-5.2478,-5.2519,-5.2549,-5.2614,-5.2656,-5.2668,-5.2711,-5.2772,-5.2818,-5.2885,-5.294,-5.3048,-5.3075,-5.3136,-5.3131,-5.3197,-5.314,-5.3138,-5.3133,-5.3129,-5.3136,-5.3208,-5.321,-5.3211,-5.3212,0,-5.2504,-5.2513,-5.2574,-5.2639,-5.2689,-5.274,-5.2789,-5.2822,-5.2842,-5.289,-5.2961,-5.3004,-5.3087,-5.3153,-5.3215,-5.3241,-5.323,-5.323,-5.3248,-5.3248,-5.3241,-5.3246,-5.305,-5.3225,-5.3224,-5.3223,-5.3222,-5.3222,-5.2608,-5.2662,-5.2713,-5.2781,-5.282,-5.2866,-5.292,-5.2946,-5.3006,-5.3077,-5.308,-5.3157,-5.3203,-5.3285,-5.3315,-5.3374,-5.3354,-5.3379,-5.3386,-5.3392,-5.3398,-5.3231,-5.3386,-5.3385,-5.3385,-5.3385,-5.3384,0,-5.2755,-5.2788,-5.285,-5.2921,-5.2974,-5.2961,-5.3015,-5.306,-5.3129,-5.3174,-5.3229,-5.331,-5.3375,-5.3407,-5.3471,-5.3512,-5.3509,-5.3528,-5.3526,-5.3532,-5.3412,-5.3391,-5.353,-5.353,-5.353,-5.353,-5.353,-5.353,-5.2838,-5.293,-5.2945,-5.3055,-5.3086,-5.3164,-5.3196,-5.3238,-5.3274,-5.3367,-5.3421,-5.3443,-5.3483,-5.355,-5.3608,-5.3616,-5.364,-5.3663,-5.3668,-5.3555,-5.354,-5.3526,-5.3506,-5.3668,-5.3668,-5.3783,-5.3784,-5.3785]}]]